STARLINK-2195, 47772

Orbit data source: Space-Track

STARLINK-2195, 47772 is a payload satellite owned by SpaceX/Seattle (US) in LEO that was launched on Thu, 04 Mar 2021 UTC via an FALCON 9 launch vehicle from the Air Force Eastern Test Range (AFETR). Payload-class satellites include a variety of spacecraft equipped with specific instruments for various scientific and technological missions. These include communications satellites like Starlink; space stations such as the ISS; scientific satellites like the Hubble; Earth observation satellites from companies like Planet Labs, Umbra, and HawkEye 360; GPS; miniature CubeSats for education and research; and military/defense satellites.

Loading next visibility...
Identifier
47772, 2021-017BC
Orbit
LEO
Country
Flag of USUS
Related business
Manufacturer
SpaceX/Seattle
Mission
Operational Commercial Communications
Bus & Motor
STARLINK, Unknown motor
Mass
260 kg wet, ~248 kg dry
Launch date (UTC)
2021-03-04 (5 years ago)
Launch vehicle
FALCON 9
Launch site
Air Force Eastern Test Range (AFETR)
Object type
Payload
Rocket body
Debris
Shape & HBR
Box + 1 Pan, 10.1 m
Radar Cross Section
13.562 m², Large (>1 m²)

Expand to show TLE details & history
Last TLE update: 11 hours ago

TLE from 11 hours ago
0 STARLINK-2195
1 47772U 21017BC  25346.97341359 -.00007197  00000-0 -46499-3 0  9990
2 47772  53.0536 250.9030 0001478  83.3200 276.7957 15.06380492264526
Epoch: 2025-12-12T23:21Z
TLE epoch observation values (Epoch: 2025-12-12T23:21:42.934Z)
Latitude
-0.00002°
Longitude
178.56674°
Altitude
548.029 km
Speed
7.589 km/s
True Right ascension
16h 43m 36s
True Declination
0° 00' 00"
Sunlit
Object was in daylight at epoch
Visualization orbit readout
Latitude
Unknown
Longitude
Unknown
Altitude
Unknown
Speed
Unknown
Apparent Right ascension
Unknown
Apparent Declination
Unknown
Sunlit
N/A
Visualization observer readout
Local Sidereal Time
09:19:33
Azimuth
Unknown
Elevation
Unknown
Doppler factor
Unknown
Orbital elements
Apogee altitude
548.566 km
Perigee altitude
546.519 km
Semi-major axis
6,925.679 km
Eccentricity
0.00015
Inclination
53.0536°
RAAN
250.903°
Arg. of periapsis
83.32°
True anomaly
276.77888°
Mean anomaly
276.7957°
Eccentric anomaly
276.78729°
Mean motion
3.76573 °/min
Orbital period
95.6 mins
BSTAR
-0.00046499
Loading maneuver chart data...
Computing Atmospheric mass density...
Loading historical data...
Loading historical data...
Loading historical data...
Loading historical data...
Loading historical data...
Loading historical data...
Loading historical data...

Documentation

Showing up to 5 results
|